Location: Bu�n Treun
(12.1333°N, 108.3167°E)
Time: 00:34:03
(UTC+00:00)

Cosmos 1812 Rocket - Visible Passes

Search period start: 24 October 2020 00:00
Search period end: 03 November 2020 00:00
Orbit: 605 x 633 km, 82.5° (Epoch: 23 October)

Date Brightness Start Highest point End Pass type
(mag) Time Alt. Az. Time Alt. Az. Time Alt. Az.
24 Oct 5.1 10:58:09 10° SE 11:00:44 15° E 11:02:34 12° ENE visible
24 Oct 5.9 12:34:51 10° SW 12:38:17 22° W 12:39:50 18° NW visible
25 Oct 4.2 11:13:55 10° SSE 11:17:54 33° E 11:21:46 10° NNE visible
26 Oct 3.4 11:30:40 10° S 11:35:05 77° E 11:39:30 10° N visible
27 Oct 4.6 11:48:05 10° SSW 11:52:19 45° W 11:56:33 10° NNW visible
27 Oct 6.8 22:14:37 10° NE 22:16:33 13° E 22:18:29 10° ESE visible
28 Oct 6.1 12:06:18 10° SW 12:09:36 21° W 12:12:53 10° NW visible
29 Oct 4.2 10:45:10 10° SSE 10:49:12 35° E 10:53:12 10° NNE visible
30 Oct 3.5 11:01:59 10° S 11:06:24 82° E 11:10:47 10° N visible
31 Oct 4.9 11:19:26 10° SSW 11:23:38 42° W 11:27:48 10° NNW visible
31 Oct 6.7 21:45:39 10° NE 21:47:51 14° E 21:50:02 10° ESE visible
01 Nov 6.3 11:37:44 10° SW 11:40:54 19° W 11:44:04 10° NW visible
01 Nov 5.7 22:01:20 10° NNE 22:05:08 30° E 22:08:57 10° SE visible
